Wahoo, NE

10:07 AM CDT on June 24, 2017 (GMT -0500)
Wahoo Municipal

Weather History for KAHQ - August, 2012

Change the Weather History Date:

Thursday, August 30, 2012

  Actual Average Record
Temperature  
Mean Temperature 82 °F -  
Max Temperature 100 °F 84 °F 100 °F (2012)
Min Temperature 63 °F 61 °F 50 °F (1992)
Cooling Degree Days 16    
Growing Degree Days 32 (Base 50)    
Moisture  
Dew Point 57 °F    
Average Humidity 50    
Maximum Humidity 84    
Minimum Humidity 18    
Precipitation  
Precipitation 0.00 in - - ()
Sea Level Pressure  
Sea Level Pressure 29.90 in    
Wind  
Wind Speed 9 mph (South)    
Max Wind Speed 20 mph    
Max Gust Speed 25 mph    
Visibility 10 miles    
Events      
Averages and records for this station are not official NWS values.
T = Trace of Precipitation, MM = Missing Value Source: NWS Daily Summary

Daily Weather History Graph

Daily Weather History Graph

Search for Another Location

Airport or City:

Trip Planner

Search our weather history database for the weather conditions in past years. The results will help you decide how hot, cold, wet, or windy it might be!

Date:

Astronomy

Aug. 30, 2012 Rise Set
Actual Time 6:51 AM CDT 8:01 PM CDT
Civil Twilight 6:22 AM CDT 8:29 PM CDT
Nautical Twilight 5:48 AM CDT 9:03 PM CDT
Astronomical Twilight 5:13 AM CDT 9:39 PM CDT
Moon 7:16 PM CDT (8/30) 5:53 AM CDT (8/30)
Length of Visible Light 14h 07m
Length of Day
13h 10m
Waxing Gibbous, 99% of the Moon is Illuminated
Aug 30
Waxing Gibbous
Aug 31
Full
Sep 8
Last Quarter
Sep 15
New
Sep 22
First Quarter

Hourly Weather History & Observations

Time (CDT) Temp. Heat Index Dew Point Humidity Pressure Visibility Wind Dir Wind Speed Gust Speed Precip Events Conditions
12:15 AM 68.9 °F - 60.1 °F 73% 29.88 in 10.0 mi South 9.2 mph - N/A   Clear
12:35 AM 69.6 °F - 59.9 °F 71% 29.88 in 10.0 mi South 9.2 mph - N/A   Clear
12:55 AM 72.1 °F - 59.9 °F 65% 29.87 in 10.0 mi South 9.2 mph - N/A   Clear
1:15 AM 72.0 °F - 59.5 °F 65% 29.87 in 10.0 mi South 9.2 mph - N/A   Clear
1:35 AM 71.1 °F - 59.5 °F 67% 29.87 in 10.0 mi South 10.4 mph - N/A   Clear
1:55 AM 71.1 °F - 59.5 °F 67% 29.87 in 10.0 mi South 8.1 mph - N/A   Clear
2:15 AM 70.5 °F - 59.5 °F 68% 29.87 in 10.0 mi South 6.9 mph - N/A   Clear
2:35 AM 72.0 °F - 59.2 °F 64% 29.87 in 10.0 mi South 9.2 mph - N/A   Clear
2:55 AM 72.9 °F - 58.6 °F 61% 29.87 in 10.0 mi SSW 10.4 mph - N/A   Clear
3:15 AM 72.9 °F - 58.5 °F 60% 29.87 in 10.0 mi SSW 8.1 mph - N/A   Clear
3:35 AM 70.9 °F - 58.8 °F 66% 29.87 in 10.0 mi SSW 6.9 mph - N/A   Clear
3:55 AM 70.0 °F - 58.6 °F 67% 29.87 in 10.0 mi South 6.9 mph - N/A   Clear
4:15 AM 70.7 °F - 58.3 °F 65% 29.87 in 10.0 mi SSW 8.1 mph - N/A   Clear
4:35 AM 69.8 °F - 58.1 °F 66% 29.87 in 10.0 mi South 5.8 mph - N/A   Clear
4:55 AM 67.1 °F - 58.3 °F 73% 29.87 in 10.0 mi South 4.6 mph - N/A   Clear
5:15 AM 67.1 °F - 58.3 °F 73% 29.88 in 10.0 mi South 5.8 mph - N/A   Clear
5:35 AM 66.6 °F - 58.3 °F 75% 29.88 in 10.0 mi South 6.9 mph - N/A   Clear
5:55 AM 65.3 °F - 58.1 °F 77% 29.88 in 10.0 mi South 4.6 mph - N/A   Clear
6:15 AM 64.0 °F - 57.7 °F 80% 29.89 in 10.0 mi South 3.5 mph - N/A   Clear
6:35 AM 63.1 °F - 57.6 °F 82% 29.89 in 10.0 mi South 4.6 mph - N/A   Clear
6:55 AM 63.3 °F - 57.4 °F 81% 29.91 in 10.0 mi South 4.6 mph - N/A   Clear
7:15 AM 63.1 °F - 58.1 °F 84% 29.91 in 10.0 mi SSE 4.6 mph - N/A   Clear
7:35 AM 63.5 °F - 58.5 °F 84% 29.91 in 10.0 mi SSE 3.5 mph - N/A   Clear
7:55 AM 66.7 °F - 59.0 °F 76% 29.92 in 10.0 mi Calm Calm - N/A   Clear
8:15 AM 68.7 °F - 59.2 °F 72% 29.93 in 10.0 mi Calm Calm - N/A   Clear
8:35 AM 70.9 °F - 59.2 °F 66% 29.92 in 10.0 mi South 4.6 mph - N/A   Clear
8:55 AM 73.8 °F - 59.4 °F 61% 29.93 in 10.0 mi South 5.8 mph - N/A   Clear
9:15 AM 77.2 °F - 59.4 °F 54% 29.94 in 10.0 mi South 8.1 mph - N/A   Clear
9:35 AM 80.6 °F 80.8 °F 57.6 °F 45% 29.94 in 10.0 mi SSW 11.5 mph - N/A   Clear
9:55 AM 82.6 °F 82.3 °F 57.7 °F 43% 29.94 in 10.0 mi South 9.2 mph - N/A   Clear
10:15 AM 85.1 °F 84.3 °F 57.4 °F 39% 29.94 in 10.0 mi South 9.2 mph - N/A   Clear
10:35 AM 87.8 °F 86.3 °F 56.3 °F 34% 29.94 in 10.0 mi South 11.5 mph - N/A   Clear
10:55 AM 89.6 °F 87.5 °F 54.5 °F 30% 29.94 in 10.0 mi SSW 19.6 mph 25.3 mph N/A   Clear
11:15 AM 90.9 °F 88.7 °F 54.5 °F 29% 29.94 in 10.0 mi SSW 17.3 mph 23.0 mph N/A   Clear
11:35 AM 91.9 °F 89.5 °F 53.8 °F 27% 29.94 in 10.0 mi SW 13.8 mph 23.0 mph N/A   Clear
11:55 AM 93.6 °F 91.0 °F 53.2 °F 25% 29.93 in 10.0 mi SSW 18.4 mph 23.0 mph N/A   Clear
12:15 PM 94.3 °F 91.8 °F 53.8 °F 25% 29.92 in 10.0 mi SSW 15.0 mph 21.9 mph N/A   Clear
12:35 PM 95.5 °F 93.1 °F 53.4 °F 24% 29.92 in 10.0 mi SSW 15.0 mph 21.9 mph N/A   Clear
12:55 PM 95.9 °F - 52.9 °F 23% 29.92 in 10.0 mi SW 15.0 mph 24.2 mph N/A   Clear
1:15 PM 96.8 °F 94.4 °F 53.8 °F 23% 29.91 in 10.0 mi South 16.1 mph - N/A   Clear
1:35 PM 97.3 °F - 52.7 °F 22% 29.91 in 10.0 mi SSW 13.8 mph 23.0 mph N/A   Clear
1:55 PM 97.9 °F 95.8 °F 54.1 °F 23% 29.91 in 10.0 mi South 17.3 mph - N/A   Clear
2:15 PM 98.4 °F 96.5 °F 54.3 °F 23% 29.90 in 10.0 mi South 15.0 mph - N/A   Clear
2:35 PM 98.6 °F - 52.7 °F 21% 29.90 in 10.0 mi SSW 13.8 mph 21.9 mph N/A   Clear
2:55 PM 99.1 °F - 52.2 °F 21% 29.89 in 10.0 mi South 13.8 mph 24.2 mph N/A   Clear
3:15 PM 99.7 °F - 51.1 °F 19% 29.89 in 10.0 mi South 16.1 mph 19.6 mph N/A   Clear
3:35 PM 99.9 °F - 49.8 °F 18% 29.88 in 10.0 mi SSW 12.7 mph 20.7 mph N/A   Clear
3:55 PM 100.0 °F - 51.4 °F 19% 29.88 in 10.0 mi South 11.5 mph 18.4 mph N/A   Clear
4:15 PM 100.0 °F - 50.9 °F 19% 29.87 in 10.0 mi SSW 13.8 mph 20.7 mph N/A   Clear
4:35 PM 99.7 °F - 50.7 °F 19% 29.87 in 10.0 mi SSW 13.8 mph 19.6 mph N/A   Clear
4:55 PM 99.5 °F - 52.7 °F 21% 29.87 in 10.0 mi South 15.0 mph 20.7 mph N/A   Clear
5:15 PM 98.8 °F 96.3 °F 53.1 °F 21% 29.87 in 10.0 mi South 13.8 mph 20.7 mph N/A   Clear
5:35 PM 98.6 °F - 51.6 °F 20% 29.86 in 10.0 mi South 9.2 mph 19.6 mph N/A   Clear
5:55 PM 97.7 °F 95.2 °F 53.1 °F 22% 29.86 in 10.0 mi South 11.5 mph 16.1 mph N/A   Clear
6:15 PM 97.2 °F 94.9 °F 53.8 °F 23% 29.87 in 10.0 mi South 11.5 mph - N/A   Clear
6:35 PM 95.9 °F - 52.7 °F 23% 29.87 in 10.0 mi South 9.2 mph - N/A   Clear
7:15 PM 90.5 °F 88.7 °F 55.9 °F 31% 29.87 in 10.0 mi South 8.1 mph - N/A   Clear
7:35 PM 87.1 °F 85.7 °F 56.1 °F 35% 29.87 in 10.0 mi South 6.9 mph - N/A   Clear
7:55 PM 82.6 °F 82.2 °F 57.4 °F 42% 29.87 in 10.0 mi South 6.9 mph - N/A   Clear
8:15 PM 80.1 °F 80.5 °F 57.7 °F 46% 29.88 in 10.0 mi South 6.9 mph - N/A   Clear
8:35 PM 77.7 °F - 58.5 °F 51% 29.88 in 10.0 mi South 8.1 mph - N/A   Clear
8:55 PM 74.7 °F - 59.9 °F 60% 29.89 in 10.0 mi South 6.9 mph - N/A   Clear
9:15 PM 74.1 °F - 59.0 °F 59% 29.90 in 10.0 mi South 8.1 mph - N/A   Clear
9:35 PM 72.7 °F - 59.0 °F 62% 29.91 in 10.0 mi South 5.8 mph - N/A   Clear
9:55 PM 71.8 °F - 59.0 °F 64% 29.92 in 10.0 mi South 6.9 mph - N/A   Clear
10:15 PM 71.4 °F - 59.0 °F 65% 29.92 in 7.0 mi SSE 4.6 mph - N/A   Clear
10:55 PM 69.4 °F - 59.2 °F 70% 29.94 in 10.0 mi Calm Calm - N/A   Clear
11:15 PM 67.5 °F - 59.4 °F 75% 29.95 in 10.0 mi Calm Calm - N/A   Clear
11:35 PM 68.9 °F - 59.2 °F 71% 29.95 in 10.0 mi Calm Calm - N/A   Clear
11:55 PM 66.7 °F - 59.4 °F 77% 29.95 in 10.0 mi South 3.5 mph - N/A   Clear